Overview Statistics Trail Chart Weather Telemetry Raw packets
 

This is the latest recevied weather packets stored in our database for station/object 4S6DRJ-13. If no packets are shown the sender has not sent any weather packets the latest 10 day(s).

<< 326 327 328 329 330 331 332 >>
Time Temp. Humidity Pressure Rain* Wind** Luminosity Snow
1787981814 30.56° C 76% 1010.8 hPa 0 mm 2.68 m/s, 108° 704 W/m² -
1787981753 30.56° C 76% 1010.8 hPa 0 mm 2.68 m/s, 245° 349 W/m² -
1787981692 30.56° C 76% 1010.8 hPa 0 mm 2.24 m/s, 136° 361 W/m² -
1787981631 30.56° C 76% 1010.9 hPa 0 mm 1.79 m/s, 316° 472 W/m² -
1787981570 30.56° C 76% 1010.7 hPa 0 mm 1.34 m/s, 309° 1124 W/m² -
1787981509 30.56° C 75% 1010.9 hPa 0 mm 2.24 m/s, 228° 1120 W/m² -
1787981448 30.56° C 76% 1010.8 hPa 0 mm 1.34 m/s, 202° 400 W/m² -
1787981387 30.56° C 75% 1010.8 hPa 0 mm 2.24 m/s, 219° 345 W/m² -
1787981326 30.56° C 75% 1010.9 hPa 0 mm 2.68 m/s, 250° 384 W/m² -
1787981265 30.56° C 75% 1010.8 hPa 0 mm 1.79 m/s, 45° 1107 W/m² -
1787981204 30.56° C 75% 1011.1 hPa 0 mm 3.13 m/s, 206° 427 W/m² -
1787981143 30.56° C 75% 1011 hPa 0 mm 1.79 m/s, 293° 1106 W/m² -
1787981082 30.56° C 75% 1011 hPa 0 mm 2.24 m/s, 210° 712 W/m² -
1787981021 30.56° C 74% 1011 hPa 0 mm 4.02 m/s, 234° 1100 W/m² -
1787980960 30.56° C 74% 1010.8 hPa 0 mm 4.02 m/s, 226° 315 W/m² -
1787980899 30.56° C 75% 1011 hPa 0 mm 2.24 m/s, 232° 480 W/m² -
1787980838 30.56° C 74% 1010.8 hPa 0 mm 1.79 m/s, 308° 1110 W/m² -
1787980777 30.56° C 75% 1010.8 hPa 0 mm 3.13 m/s, 228° 1107 W/m² -
1787980717 30.56° C 75% 1010.9 hPa 0 mm 1.34 m/s, 226° 934 W/m² -
1787980655 30.56° C 75% 1010.9 hPa 0 mm 1.34 m/s, 238° 467 W/m² -
1787980594 30.56° C 75% 1010.8 hPa 0 mm 2.68 m/s, 40° 1104 W/m² -
1787980533 30.56° C 75% 1011.1 hPa 0 mm 1.79 m/s, 330° 1104 W/m² -
1787980472 30.56° C 75% 1011 hPa 0 mm 1.79 m/s, 218° 1106 W/m² -
1787980411 30° C 75% 1010.9 hPa 0 mm 4.02 m/s, 299° 1101 W/m² -
1787980350 30° C 76% 1010.9 hPa 0 mm 2.24 m/s, 254° 1102 W/m² -

* Rain latest hour (hover to see other rain measurements)
** Current wind speed in m/s (hover to see current wind gust speed)